Location: Treviso
(45.6669°N, 12.2430°E)
Time: 09:42:28
(UTC+02:00)

ISS - Pass Details

Date: 21 May 2018
Orbit: 402 x 407 km, 51.6° (Epoch: 27 May)

Event Time Altitude Azimuth Distance (km) Brightness Sun altitude
Rises 00:43:18 0° 275° (W) 2,317 0.2 -24.0°
Reaches altitude 10° 00:45:32 10° 286° (WNW) 1,458 -0.8 -24.0°
Maximum altitude 00:48:29 30° 350° (N) 749 -1.9 -24.1°
Drops below altitude 10° 00:51:26 10° 55° (NE) 1,459 -0.7 -24.1°
Sets 00:53:40 0° 66° (ENE) 2,319 0.3 -24.1°
